OPS 4682 DEB, 38365

Orbit data source: Space-Track

OPS 4682 DEB, 38365 is space debris in LEO originally from a launch on Sat, 03 Apr 1965 UTC launched from the Air Force Western Test Range (AFWTR). Debris objects in space refer to the collection of defunct objects orbiting the Earth. Examples of debris include non-operational satellites, rocket bodies, and fragments generated from explosions, collisions, or faulty payload assembly.

Loading next visibility...
Identifier
38365, 1965-027BS
Orbit
LEO
Country
Flag of USUS
Related business
Manufacturer
Unknown
Mission
Spacecraft
Bus & Motor
Unknown
Mass
Unknown
Launch date (UTC)
1965-04-03 (61 years ago)
Launch vehicle
Unknown
Launch site
Air Force Western Test Range (AFWTR)
Object type
Payload
Rocket body
Debris
Shape & HBR
Unknown shape, 0.1 m
Radar Cross Section
Small (<0.1 m²)

Expand to show TLE details & history
Last TLE update: 1 week ago

TLE from 1 week ago
0 OPS 4682 DEB
1 38365U 65027BS  26152.00875806  .00000906  00000-0  30124-2 0  9992
2 38365  90.2389 355.7012 0026367  29.0215 331.2366 12.99284561630217
Epoch: 2026-06-01T00:12Z
TLE epoch observation values (Epoch: 2026-06-01T00:12:36.696Z)
Latitude
-0.00003°
Longitude
103.04606°
Altitude
1,250.117 km
Speed
7.238 km/s
True Right ascension
23h 42m 48s
True Declination
0° 00' 00"
Sunlit
Object was in daylight at epoch
Visualization orbit readout
Latitude
Unknown
Longitude
Unknown
Altitude
Unknown
Speed
Unknown
Apparent Right ascension
Unknown
Apparent Declination
Unknown
Sunlit
N/A
Visualization observer readout
Local Sidereal Time
13:03:48
Azimuth
Unknown
Elevation
Unknown
Doppler factor
Unknown
Orbital elements
Apogee altitude
1,282.164 km
Perigee altitude
1,241.874 km
Semi-major axis
7,640.156 km
Eccentricity
0.00264
Inclination
90.2389°
RAAN
355.7012°
Arg. of periapsis
29.0215°
True anomaly
331.09079°
Mean anomaly
331.2366°
Eccentric anomaly
331.16374°
Mean motion
3.25005 °/min
Orbital period
110.77 mins
BSTAR
0.0030124
Loading maneuver chart data...
Computing Atmospheric mass density...
Loading historical data...
Loading historical data...
Loading historical data...
Loading historical data...
Loading historical data...
Loading historical data...
Loading historical data...

Documentation

Showing up to 5 results
|